Regional Weather Roundup
Issued by NWS Binghamton, NY

Home | Current Version | Previous Version | Text Only | Print | Product List | Glossary On
Versions: 1 2 3 4 5 6 7 8 9 10 11 12 13 14 15 16 17 18 19 20 21 22 23 24 25 26 27 28 29 30 31 32 33 34 35 36 37 38 39 40 41 42 43 44 45 46 47 48 49 50
000
ASUS41 KBGM 222310
RWRBGM

REGIONAL WEATHER ROUNDUP
NATIONAL WEATHER SERVICE BINGHAMTON NY
600 PM EST SUN JAN 22 2017

Note: "fair" indicates few or no clouds below 12,000 feet with no
significant weather and/or obstructions to visibility.

* = Station(s) that does not report precipitation, such as rain,
snow, etc, also no thunder or fog.

NYZ009-015>018-022>025-036-037-044>046-055>057-062-230000
...Central New York...

CITY           SKY/WX    TMP DP  RH WIND       PRES   REMARKS
Binghamton     CLOUDY    49  45  86 SE8       29.68R
Cortland       FAIR      46  45  93 NE5       29.69R
Dansville      CLOUDY    43  42  97 N8        29.69R FOG
Elmira         CLOUDY    49  43  80 E9        29.66S
Seneca Falls   CLEAR     45  43  93 N6        29.71R
Ithaca         PTCLDY    43  42  97 NW3       29.69R
Hamilton       CLEAR     41  37  87 CALM      29.71R
Monticello     CLOUDY    46  45  93 E10G16    29.74R
Norwich        MOCLDY    46  43  87 CALM      29.71S
Oneonta        MOCLDY    43  43 100 S8        29.71R
Penn Yan       CLOUDY    45  41  86 VRB3      29.70R
Rome           CLOUDY    45  42  89 E6        29.76R
Sidney         CLOUDY    50  46  87 CALM      29.70R
Syracuse       MOCLDY    45  42  89 E6        29.71S
$$

PAZ038>040-043-044-047-048-072-230000
...Northeast Pennsylvania...

CITY           SKY/WX    TMP DP  RH WIND       PRES   REMARKS
Hazleton       CLOUDY    46  46 100 E5        29.69F
Scranton       CLOUDY    53  48  83 E5        29.68S
$$
&&
KEY
WCI = Wind Chill Index
VSB = Visibility
HX  = Heat Index
$$



USA.gov is the U.S. government's official web portal to all federal, state and local government web resources and services.